Location: Katzenstein
(51.7484°N, 10.2155°E)
Time: 16:31:48
(UTC+00:00)

Cosmos 2219 Rocket - Pass Details

Date: 17 February 2020
Orbit: 829 x 846 km, 71.0° (Epoch: 07 April)

Event Time Altitude Azimuth Distance (km) Brightness Sun altitude
Exits shadow 02:32:54 31° 27° (NNE) 1,466 3.7 -36.5°
Drops below altitude 10° 02:35:43 10° 30° (NNE) 2,479 5.2 -36.1°
Sets 02:38:10 0° 31° (NNE) 3,417 6.1 -35.8°
